Presure
200 173 199 173 195 185 135 134 204 190 130 207 193 189 190 188 192 202 202 215 187 209 138 221 275 237 274 344 313 280 257 187 253 281 279 273 275 273 132 276 211 178 200 129 130
203 186 186 213 197 184 204 204 206 202 102 190 194 198 190 200 207 206 210 192 195 175 208 222 226 237 286 284 303 269 248 254 254 287 272 270 255 216 181 275 197 259 147 149 126
191 211 193 196 198 184 186 181 182 154 189 192 188 185 182 210 201 190 212 217 150 108 208 234 261 246 306 288 261 248 251 247 285 153 266 269 251 152 254 227 225 213 143 206 181
151 207 183 192 180 181 185 206 195 181 187 192 172 196 181 148 162 204 188 216 210 191 201 214 259 244 287 268 265 262 272 272 268 260 270 148 257 245 229 124 150 236 262 214 243
192 197 184 204 193 198 200 189 178 187 187 190 193 181 177 163 205 152 183 182 198 193 199 223 275 226 274 256 272 259 272 279 198 254 246 249 233 247 227 202 255 232 228 230 195
191 189 198 182 186 197 187 199 189 163 180 186 190 175 194 182 194 203 189 199 199 201 200 211 252 225 266 252 261 254 258 261 249 238 232 217 238 229 231 115 240 246 201 224 206
185 191 189 184 195 190 193 185 193 194 185 179 191 196 183 204 213 186 174 186 207 191 216 229 254 227 261 254 250 247 257 250 233 230 243 223 235 234 112 176 124 145 130 216 223
182 182 189 183 175 178 185 178 189 194 170 178 186 194 157 202 189 200 195 174 201 198 162 221 252 225 260 253 243 244 248 242 227 231 227 245 237 241 147 146 230 247 252 231 215
207 180 169 176 180 184 185 184 184 183 186 187 170 180 166 203 204 190 200 198 188 206 202 212 251 220 259 254 235 237 242 238 244 239 235 237 225 185 232 232 220 232 233 165 234
185 194 186 163 178 185 181 215 183 173 170 166 197 210 190 204 199 181 185 193 183 201 202 223 268 217 262 253 243 234 230 236 237 228 228 241 164 230 224 221 214 232 214 142 217
169 207 189 195 192 192 182 189 182 193 201 206 196 169 163 204 198 187 212 193 207 184 209 213 252 214 248 258 243 244 225 235 240 245 244 241 235 227 220 218 234 213 147 206 217
177 191 214 168 197 190 195 183 182 181 174 181 179 201 202 208 194 185 188 195 196 208 195 211 227 215 222 235 247 235 226 222 232 209 237 238 240 233 215 200 215 223 219 205 206
188 189 197 173 204 191 158 180 181 192 188 203 189 183 191 193 169 197 179 181 186 207 213 217 229 211 211 240 249 236 227 226 219 218 231 223 219 227 232 207 222 128 217 199 164
149 165 155 200 180 198 190 195 171 186 197 200 193 209 182 189 202 182 196 208 194 208 198 187 276 211 213 244 237 246 236 237 225 223 224 223 226 222 211 213 220 211 212 123 142
191 160 182 178 170 163 202 191 203 185 182 183 198 201 203 206 188 194 203 186 185 198 197 203 224 265 212 210 238 232 234 230 243 227 241 221 217 220 227 223 225 218 179 130 127
224 162 190 205 241 197 191 172 182 167 163 182 177 205 205 205 191 203 204 186 209 196 161 204 214 295 210 208 230 234 235 240 224 214 221 226 220 222 227 224 217 218 220 221 213
212 205 240 189 162 223 222 161 236 186 176 159 180 185 205 205 203 197 206 204 190 202 189 191 211 228 223 206 207 241 239 240 244 212 205 215 215 214 213 211 212 215 213 217 222
247 215 263 208 208 205 205 240 178 179 201 178 178 187 189 211 199 209 186 165 176 199 198 206 201 206 287 201 205 216 237 243 240 230 218 217 219 212 212 214 208 216 211 209 202
256 261 253 262 251 212 243 250 221 211 204 188 173 156 192 200 198 213 186 185 186 209 186 199 199 207 292 216 208 209 217 233 239 237 227 223 220 229 214 214 207 212 202 218 219
258 257 269 249 252 244 260 246 217 190 209 186 194 197 189 205 210 195 182 170 206 182 203 190 200 196 207 182 210 220 218 202 222 236 233 231 229 223 221 219 219 218 218 212 202
266 259 253 253 256 252 264 237 129 210 150 211 205 186 187 187 197 179 203 167 195 192 208 183 187 208 223 280 205 211 213 203 210 221 221 223 214 220 225 225 219 214 202 205 199
275 265 251 254 265 262 246 234 213 210 212 210 188 176 182 202 192 196 188 194 177 192 202 196 190 174 215 252 243 216 198 205 212 204 205 208 221 218 210 213 212 208 210 207 209
279 260 251 249 274 233 237 122 213 213 217 210 206 198 199 206 172 187 196 181 198 195 214 191 208 191 204 285 266 238 205 234 223 229 212 202 211 205 204 206 207 211 205 209 215
279 273 259 252 186 257 217 167 214 212 218 210 196 200 200 203 181 196 159 179 197 189 221 185 220 203 170 243 266 239 226 240 242 227 220 214 208 208 207 209 211 213 226 223 217
288 272 255 97 262 252 233 229 221 200 220 179 182 204 191 203 198 194 204 174 200 209 213 202 205 195 182 213 265 235 232 229 251 235 221 226 219 238 223 218 220 217 213 220 214
318 280 269 99 116 256 239 229 233 229 218 219 208 201 196 189 196 201 205 206 213 194 180 156 166 178 180 220 274 234 220 209 227 224 218 217 213 216 201 228 203 203 220 215 216
356 281 81 137 200 254 247 233 225 221 216 210 152 192 182 192 193 194 206 194 208 197 214 204 202 200 193 198 211 238 232 226 212 210 210 207 205 205 200 211 216 221 217 224 237
Wind_Speed
65 73 73 75 77 77 68 65 70 70 53 66 66 71 75 79 76 72 59 65 60 63 39 67 76 59 49 17 19 15 17 27 21 12 15 25 20 23 44 32 34 56 50 33 35
69 76 76 64 71 66 69 69 68 65 49 64 64 66 74 77 75 72 68 51 56 57 63 66 64 61 40 19 14 13 17 21 18 13 18 23 26 28 37 28 45 38 41 38 48
71 66 69 68 69 72 73 72 70 62 66 64 65 68 72 74 74 57 70 68 42 42 64 74 72 62 20 10 6 10 19 20 11 36 19 19 24 36 21 32 44 44 31 34 61
83 67 70 70 72 74 71 71 66 69 66 65 68 66 69 62 63 69 57 73 72 52 56 61 68 58 19 18 6 7 9 10 18 17 11 34 24 28 36 39 35 38 28 38 28
67 67 70 69 71 68 70 68 68 68 66 61 60 65 67 67 65 54 43 46 59 50 52 66 57 55 20 17 5 5 6 11 18 19 25 30 36 28 38 37 31 34 30 28 34
70 70 71 73 69 69 70 64 70 63 67 62 62 65 70 63 56 69 54 57 51 55 51 57 57 50 18 16 6 3 9 17 27 24 31 31 34 37 33 46 30 37 38 30 36
71 69 69 73 68 68 69 71 69 70 67 65 64 69 65 73 74 46 38 40 59 47 59 62 49 46 16 12 4 4 13 20 24 27 31 31 32 31 44 36 47 43 43 32 33
74 75 71 74 78 73 73 71 76 72 58 62 68 68 47 70 50 57 48 44 48 51 38 57 47 42 15 7 3 7 10 18 23 25 27 22 30 25 39 39 22 23 29 36 38
69 80 80 70 73 74 77 77 79 77 75 74 61 60 45 67 67 48 54 53 36 51 44 51 45 39 15 7 9 9 8 13 14 20 21 20 25 29 23 21 29 27 36 44 36
73 73 83 62 79 76 66 55 63 68 58 48 74 66 62 66 61 41 34 44 32 44 43 56 34 37 13 9 12 9 9 10 15 20 21 18 18 25 26 28 32 33 36 43 39
74 72 79 79 76 78 77 74 81 72 67 66 76 41 40 64 57 42 61 37 46 35 45 48 37 33 18 14 11 10 10 10 13 17 20 24 22 28 26 28 28 36 27 37 37
81 83 82 53 83 75 77 76 79 72 62 74 64 72 67 61 54 38 33 46 35 37 32 47 40 32 28 19 11 11 11 10 12 13 14 18 16 29 25 32 32 33 38 38 40
90 82 87 66 83 74 40 76 66 70 68 65 80 69 66 56 34 53 42 30 28 40 45 46 37 31 28 15 11 13 11 13 15 12 14 18 17 24 28 31 35 37 32 40 39
63 65 53 92 77 89 81 83 60 74 68 72 71 68 51 51 58 35 46 53 33 37 30 24 30 29 29 19 15 12 11 17 17 18 18 20 21 25 28 30 35 32 33 41 41
104 63 86 69 62 48 98 84 88 64 64 63 67 64 66 64 44 51 51 28 28 26 27 35 35 23 28 25 15 13 13 12 17 13 22 22 21 22 28 32 35 34 37 48 47
101 72 79 103 100 76 68 52 65 40 35 63 53 65 66 67 52 51 48 32 46 23 27 35 31 26 28 24 21 17 16 14 17 17 15 19 23 24 23 25 27 28 30 30 34
115 112 98 96 71 72 86 46 76 74 62 47 65 62 63 63 56 45 48 42 20 33 24 25 31 32 26 23 24 19 16 17 19 23 22 19 21 21 23 26 25 28 29 31 34
96 114 87 103 102 97 85 87 46 75 73 71 53 57 53 61 56 49 31 39 31 16 30 36 28 22 21 25 23 23 16 18 21 23 22 21 23 23 24 25 28 31 30 32 35
95 88 84 92 91 99 89 82 71 70 74 83 39 46 65 58 44 47 24 30 23 44 19 32 27 22 23 24 24 21 19 14 19 25 25 24 24 27 26 28 31 33 34 32 30
96 90 86 91 92 91 83 76 76 64 72 73 74 73 49 48 50 37 29 42 45 26 24 25 27 27 21 21 23 21 19 21 16 20 24 26 24 28 28 29 28 30 30 30 32
101 90 84 92 96 93 79 76 35 75 45 71 70 53 34 36 51 38 47 43 26 26 41 27 23 26 28 26 19 21 22 23 20 20 21 21 23 26 28 26 25 28 30 32 38
104 89 85 94 96 85 77 77 75 77 72 68 57 38 34 61 39 51 27 26 32 21 25 19 27 26 23 29 21 23 20 22 26 25 23 22 28 27 28 27 29 31 32 33 36
103 88 89 95 90 72 76 40 78 77 72 71 69 69 67 60 47 38 43 30 36 26 51 24 32 30 25 28 24 20 25 25 31 31 28 26 29 23 32 33 33 34 35 36 36
105 102 95 84 42 81 74 55 80 79 74 72 61 67 63 61 55 52 39 38 40 38 52 33 33 26 28 28 22 23 21 24 28 31 28 29 29 30 35 37 37 37 33 33 33
112 100 85 25 70 75 83 83 82 70 72 59 60 68 53 63 62 54 61 44 41 44 41 23 22 28 31 20 22 24 22 22 23 26 28 28 31 27 31 36 36 35 38 33 32
112 100 90 28 12 83 83 82 77 82 74 75 72 72 63 52 58 66 56 51 60 37 42 27 28 35 36 20 23 23 25 23 26 26 27 27 32 30 36 32 44 40 38 36 32
100 98 12 40 56 80 76 75 81 82 79 76 46 61 50 62 55 43 55 33 52 29 47 33 37 23 36 25 22 26 29 25 21 28 30 32 35 33 40 37 38 35 37 38 38
Wind_Direction
264 270 268 272 274 279 273 281 285 294 288 293 297 297 299 301 303 307 319 323 313 327 304 333 338 334 330 304 227 242 255 258 261 246 191 196 209 206 239 210 224 233 234 234 234
266 275 274 260 277 272 275 279 282 285 275 294 296 298 298 300 302 308 312 323 329 310 332 334 331 334 332 331 237 256 269 262 261 204 187 193 194 229 223 190 227 209 242 234 244
272 265 276 276 275 282 283 283 285 285 288 292 297 296 297 299 301 316 309 313 307 279 334 340 337 332 337 11 338 279 265 264 221 247 179 183 183 234 185 208 217 226 234 234 232
274 271 273 276 277 279 279 278 281 285 289 291 291 296 296 283 299 305 317 315 324 321 333 336 336 333 342 345 349 291 249 228 180 168 171 241 155 181 199 235 241 218 211 225 219
270 269 271 271 272 274 275 280 280 284 284 291 292 293 295 286 297 298 313 321 322 326 331 339 333 334 329 343 48 101 95 153 201 157 159 162 190 175 201 211 206 216 224 218 229
268 271 271 270 272 275 274 276 278 285 284 289 290 288 294 299 303 303 315 318 328 333 328 334 334 335 324 331 313 71 110 150 153 159 177 192 186 203 211 242 205 208 226 217 227
269 270 274 274 276 275 280 279 279 281 282 287 289 291 296 299 295 308 303 320 328 329 338 338 334 336 326 322 332 156 126 152 179 181 183 193 189 199 244 225 237 237 244 217 217
263 267 267 270 274 276 278 279 282 283 283 286 289 291 282 296 303 298 312 298 326 329 293 339 335 338 322 315 245 242 156 161 195 186 196 181 192 197 236 239 211 208 202 210 221
259 262 270 269 268 271 273 277 281 283 284 285 287 291 294 291 291 301 302 316 325 333 333 338 333 337 324 297 254 249 244 200 184 191 204 188 199 222 202 193 198 196 197 235 208
258 256 260 270 266 267 267 277 274 281 278 283 285 287 291 291 293 290 301 313 316 332 327 338 331 334 313 299 264 254 259 256 210 200 219 201 229 205 201 195 200 199 209 239 215
269 266 257 257 256 257 267 267 272 274 277 282 284 286 283 286 293 292 298 314 325 315 341 339 334 332 320 286 274 257 264 263 245 232 220 229 207 213 208 209 218 209 247 225 226
265 254 268 267 260 264 260 266 265 274 282 282 286 282 286 287 288 295 302 306 316 335 329 335 334 328 329 310 267 268 257 259 257 205 230 230 220 216 217 221 221 224 220 231 232
251 256 254 255 262 260 260 266 268 271 270 274 280 277 283 285 273 291 290 301 309 329 341 334 331 325 328 299 279 258 270 250 262 265 255 241 237 223 217 229 231 256 234 235 247
252 259 248 264 258 264 260 256 267 267 267 269 273 272 283 285 284 284 299 305 318 330 330 314 338 324 323 300 288 275 275 265 259 258 254 242 237 233 236 238 240 237 239 264 261
255 243 258 264 264 247 260 260 259 268 273 273 270 272 275 279 286 291 294 293 305 320 328 334 336 315 319 323 291 287 273 266 259 245 237 234 235 232 233 242 251 254 251 259 264
259 244 258 257 253 258 253 263 267 264 256 272 273 271 270 271 283 287 290 287 304 328 262 332 330 332 317 315 296 278 265 250 236 235 238 240 243 247 245 240 240 250 255 256 252
252 253 251 257 250 244 251 240 248 267 261 242 270 274 270 273 276 284 287 288 296 314 315 323 324 330 310 314 315 279 268 255 233 243 245 240 243 242 247 253 257 259 258 267 264
247 251 244 252 255 258 255 240 249 262 254 264 262 275 274 267 275 275 261 264 270 317 323 322 316 324 313 310 312 304 281 253 237 240 247 243 249 245 251 257 259 265 261 260 269
239 238 237 236 237 251 235 233 236 244 247 256 247 253 270 277 269 276 250 275 281 302 302 315 309 317 317 302 302 302 297 275 247 237 248 250 252 257 240 247 257 260 269 274 275
236 235 230 233 233 234 231 224 232 234 239 253 258 261 249 262 270 265 245 258 295 271 309 302 303 298 307 266 297 292 280 286 269 250 250 250 246 248 248 251 255 259 263 265 268
230 228 226 228 228 231 223 221 230 229 247 239 247 256 258 255 269 233 279 257 276 285 304 273 284 306 323 295 292 277 275 288 284 256 264 251 248 255 255 255 254 252 254 257 263
227 222 223 225 228 225 221 217 224 229 228 232 241 226 233 263 267 269 243 252 250 279 293 298 287 269 302 311 283 276 281 286 278 282 273 273 262 255 265 259 257 257 261 260 263
222 216 218 223 225 220 219 226 222 224 227 230 236 245 254 254 226 251 264 248 277 281 294 279 308 282 289 300 278 276 276 266 266 258 266 269 270 268 265 263 262 262 261 264 266
217 214 213 217 210 214 216 220 220 224 223 227 233 242 250 252 247 260 248 234 273 264 291 271 293 283 268 320 287 275 277 272 260 259 261 256 263 256 256 257 255 258 261 260 263
215 213 210 225 214 212 214 219 219 224 223 228 232 238 243 246 253 257 262 248 266 281 289 283 287 265 270 305 284 280 280 275 257 260 260 263 263 260 255 256 258 260 263 261 258
218 209 206 206 244 208 213 219 219 220 223 224 229 236 241 246 250 254 259 265 272 252 252 256 262 268 269 321 285 276 272 282 270 269 266 262 257 260 258 255 266 271 267 272 272
215 207 248 215 212 209 209 212 217 218 219 224 225 228 220 244 240 246 257 245 271 261 276 261 281 256 263 273 313 267 267 274 274 260 262 261 266 259 264 263 265 267 271 271 267